Погода в Уве-Тукле

Россия / Удмуртская Республика     56°58′11″N   52°06′55″E
темп.,
°C
ветер,
м/с
пор.,
м/с
влажн.,
%
обл.,
%
осадки,
мм/ч
давл.,
гПа
погр.,
м
17 мая, пн
пн1701:00+17ю267199 0.0 1015106
04:00+15сз018462 0.4 101611
07:00+19ссз117993 0.4 1016131
10:00+24зюз2556100 0.4 1016959
13:00+28зюз5103887 0.0 10162338
16:00+28зсз593879 0.0 10162344
19:00+22сз266595 0.6 1016175
22:00+17ссз2271100 0.6 101738
18 мая, вт
вт1801:00+15с2377100 0.0 101857
04:00+13св22875 0.0 101939
07:00+17ссв346717 0.0 1020266
10:00+21с344997 0.0 1020832
13:00+23ссв3438100 0.0 10201225
16:00+24св34375 0.0 10201475
19:00+22ссв245489 0.0 1020106
22:00+16в31070100 0.0 1021211
19 мая, ср
ср1901:00+13в3107396 0.0 1022198
04:00+12в31085100 0.0 1022243
07:00+15вюв48705 0.0 1023422
10:00+20вюв46465 0.0 1023963
13:00+24вюв46335 0.0 10221325
16:00+24юв45305 0.0 10211444
19:00+21юв36485 0.0 1021193
22:00+14вюв24705 0.0 102254
20 мая, чт
чт2001:00+13вюв36721 0.0 1022103
04:00+11вюв37765 0.0 1022117
07:00+16юв35605 0.0 1022195
10:00+22ююв3443100 0.0 1022901
13:00+24юв56357 0.0 10201804
16:00+24ююв573340 0.0 10191848
19:00+21юв37480 0.0 1018328
22:00+15юв310680 0.0 1018197
21 мая, пт
пт2101:00+13вюв3966100 0.0 1017166
04:00+13вюв3107076 0.0 1016184
07:00+16юв4125782 0.0 1015516
10:00+18юв495669 0.0 1015878
13:00+20ююв7106481 0.4 10131523
16:00+17ююз61189100 2.6 1014948
19:00+16ююз3108698 0.3 1015742
22:00+14ю3109596 1.9 1015219